Volver al catálogo

STARLINK-31718

ActivoComunicacionesVLEO
NORAD 59556·PAYLOAD·🇺🇸 United States

Lanzado Apr 18, 2024 desde Cape Canaveral Space Force Station

Loading…

Próximos Pases (próximas 24 horas)

TLE

ActualizadoSource: CelesTrak SupGP

Época: Sep 15, 2026, 03:18 UTC

1 59556C 24074Y   26258.13798611  .00045419  00000+0  16448-2 0  2581
2 59556  43.0036 353.8315 0001620 261.9926 164.2486 15.27560425    19

Sigue STARLINK-31718 en tiempo real con AllMySat

Download on the App Store